Regional Weather Roundup
Issued by NWS

Home | Current Version | Previous Version | Text Only | Print | Product List | Glossary Off
Versions: 1 2 3 4 5 6 7 8 9 10 11 12 13 14 15 16 17 18 19 20 21 22 23 24 25 26 27 28 29 30 31 32 33 34 35 36 37 38 39 40 41 42 43 44 45 46 47 48 49 50

000
ASUS43 KLMK 271102
RWRKY
KENTUCKY REGIONAL WEATHER ROUNDUP
NATIONAL WEATHER SERVICE LOUISVILLE KY
700 AM EDT THU AUG 27 2015

NOTE "FAIR" INDICATES FEW OR NO CLOUDS BELOW 12,000 FEET
WITH NO SIGNIFICANT WEATHER AND/OR OBSTRUCTIONS TO VISIBILITY.

KYZ001>023-026-027-061>063-070>075-271200-
WESTERN AND SOUTH CENTRAL KENTUCKY

CITY           SKY/WX    TMP DP  RH WIND       PRES   REMARKS
PADUCAH        CLEAR     55  53  93 CALM      30.12S
HENDERSON      CLEAR     55  52  88 CALM      30.13R
OWENSBORO      CLEAR     56  55  96 CALM      30.14R
HOPKINSVILLE   CLEAR     55  53  94 N3        30.12R
BOWLING GREEN  CLEAR     55  53  93 CALM      30.13R FOG
GLASGOW        NOT AVBL
$$

KYZ024-025-028>034-038-045-046-053-271200-
NORTH CENTRAL KENTUCKY

CITY           SKY/WX    TMP DP  RH WIND       PRES   REMARKS
LOUISVILLE/SDF MOCLDY    64  56  75 E3        30.14R
LOUISVILLE/LOU CLOUDY    64  57  78 CALM      30.15R
FORT KNOX      CLOUDY    58  56  94 CALM      30.13R
$$

KYZ035>037-039>044-047>052-055>060-089>105-271200-
NORTHEAST KENTUCKY

CITY           SKY/WX    TMP DP  RH WIND       PRES   REMARKS
LEXINGTON      CLEAR     56  53  90 E3        30.16R
COVINGTON      MOCLDY    63  56  78 CALM      30.17R
FRANKFORT      CLEAR     55  52  89 CALM      30.15R
$$

KYZ054-064>069-076>088-106>120-271200-
SOUTHEAST KENTUCKY

CITY           SKY/WX    TMP DP  RH WIND       PRES   REMARKS
JACKSON        CLEAR     56  53  90 CALM      30.16R
LONDON         CLEAR     56  51  84 N5        30.15R
SOMERSET       NOT AVBL
MIDDLESBORO    FOG       54  54 100 CALM      30.15R VSB 1
MONTICELLO     SUNNY     51  51 100 CALM      30.17R FOG
$$



USA.gov is the U.S. government's official web portal to all federal, state and local government web resources and services.